Regional Weather Roundup
Issued by NWS Cleveland, OH

Home | Current Version | Previous Version | Graphics & Text | Print | Product List | Glossary On
Versions: 1 2 3 4 5 6 7 8 9 10 11 12 13 14 15 16 17 18 19 20 21 22 23 24 25 26 27 28 29 30 31 32 33 34 35 36 37 38 39 40 41 42 43 44 45 46 47 48 49 50
000
ASUS41 KCLE 020010
RWRCLE
OHIO REGIONAL WEATHER ROUNDUP
NATIONAL WEATHER SERVICE CLEVELAND, OH
800 PM EDT SAT AUG 01 2015

NOTE: "FAIR" INDICATES FEW OR NO CLOUDS BELOW 12,000 FEET WITH NO
SIGNIFICANT WEATHER AND/OR OBSTRUCTIONS TO VISIBILITY.

OHZ001>008-015>018-024>027-034-035-043-044-020100-
   NORTHWEST OHIO

CITY           SKY/WX    TMP DP  RH WIND       PRES   REMARKS
DEFIANCE       CLOUDY    79  52  38 VRB6      29.92F
FINDLAY        CLEAR     79  53  40 W9        29.91F
TOLEDO EXPRESS CLEAR     78  54  43 W10       29.90S
TOLEDO EXEC    CLEAR     80  53  39 W12       29.90S
LIMA           MOCLDY    77  55  46 W7        29.94F
$$

OHZ009>014-019>023-028>033-038-089-020100-
   NORTHEAST OHIO

CITY           SKY/WX    TMP DP  RH WIND       PRES   REMARKS
CLE-HOPKINS    CLEAR     79  53  40 W10       29.92R
CLE-LAKEFRONT  CLEAR     79  59  50 W12       29.88S
CUY CO. ARPT   PTCLDY    79  55  44 W14       29.91S
LORAIN-ELYRIA  CLEAR     76  54  46 W5        29.91S
ASHTABULA      CLEAR     75  53  46 W5        29.91S
AKRON-CANTON   PTCLDY    78  54  43 W6        29.93R
WOOSTER        PTCLDY    74  57  55 W3        29.94R
MANSFIELD      CLEAR     77  54  44 W5        29.94S
YOUNGSTOWN     PTCLDY    76  50  40 NW6       29.92R
$$

OHZ042-051>053-060>062-070>072-077>081-020100-
  SOUTHWEST OHIO

CITY           SKY/WX    TMP DP  RH WIND       PRES   REMARKS
CINC-COVINGTON PTCLDY    79  57  46 NW8       29.98S
CINC-LUNKEN    CLEAR     78  57  48 NW8       29.97S
HAMILTON       PTCLDY    78  60  53 W5        29.97S
DAYTON         PTCLDY    78  56  46 NW6       29.97F
WRIGHT-PAT AFB PTCLDY    79  54  41 NW5       29.96F
DAYTON GENERAL CLEAR     80  53  39 NW3       29.96F
WILMINGTON     PTCLDY    79  55  43 NW6       29.97S
$$

OHZ036-037-039>041-045>050-054>059-063>069-073>076-082>088-020100-
  CENTRAL AND SOUTHEAST OHIO

CITY           SKY/WX    TMP DP  RH WIND       PRES   REMARKS
COLUMBUS       PTCLDY    79  54  41 W12       29.93F
OSU AIRPORT    CLEAR     77  56  48 W9        29.94F
BOLTON FIELD   CLEAR     77  59  54 W3        29.96S
RICKENBACK AFB CLEAR     77  57  49 W6        29.94S
NEWARK         CLEAR     78  57  48 W5        29.94R
MARION         CLEAR     78  53  41 W6        29.94S
LANCASTER      CLEAR     77  57  50 W6        29.96R
ZANESVILLE     MOCLDY    77  57  50 W5        29.94S
NEW PHILLY     CLEAR     76  58  53 VRB3      29.93S
$$


USA.gov is the U.S. government's official web portal to all federal, state and local government web resources and services.